Погода в Перми

Погода в Перми : погода сейчас, прогноз погоды и архив. Всё, что Вы хотите узнать о погоде в Перми!

Хотите узнать прогноз погоды в Перми? Тогда Вам сюда: Погода в Перми

Поиск расширенной информации на нашем сайте:

Другие новости

Новости СМИ2

Главная страница сайта

Новости сайта

02.10.2013

Напоминаем, что на нашем новом сайте вы можете получить высокодетализированные прогнозы погоды по пунктам России, СНГ и мира (включающие важные для авиации метеовеличины, такие как направление и скорость ветра, видимость, явления погоды, количество и форма облачности, нижняя и верхняя граница облачности), а также ознакомиться с разнообразными материалами по авиационной метеорологии и подборкой полезных ссылок на эту тему.

Сайт Метеоцентр.Азия посвящён разработке технологий оптимизации авиаметеорологического обслуживания, включая проектирование и перспективное создание нескольких автоматизированных авиаметеорологических систем:
- система выпуска высокодетальных прогностических карт явлений погоды для нижнего воздушного пространства по России и ближнему зарубежью;
- система верификации прогнозов TAF (выпускаемых синоптиками официальных АМСГ РФ и ближнего зарубежья) и AUTOTAF (выпускаемых сайтом Метеоцентр.Азия) - выявление ошибок, онлайн-сопоставление с фактической погодой METAR, автоматическое внесение коррективов в прогнозы при резком отклонении фактической погоды от прогноза, подсчёт оправдываемости прогнозов по элементам и в целом;
- система обработки, анализа и отображения авиаметеорологической информации для применения провайдерами метеорологической информации.

Рекомендуем: Свежая информация - передние амортизаторы Daewoo Lanos - актуальная информация!

Погода в Перми - сегодня

Время (UTC), дата Ветер
(°,м/с) 
Видим.   Явления Облачность Т
(°С)
Тd
(°С)
f(%) Тe
(°С)
Pmin
(гПа)
dP
(гПа)
Po
(мм)
O2
(г/м3)
Тmin Tmax R s Состояние
почвы
09 22.03.17 180 (Ю) 20000 м    10/0 верхняя 
[Cs]
+4.9 -15.3 22 +5  1027.9  755  300           
12 22.03.17 160 (Ю) 20000 м    10/0 верхняя 
[Cs]
+6.5 -13.4 23 +5  1026.9  -0.9  754  298           
15 22.03.17 150 (ЮВ) 20000 м    10/10 2000 м 
[As trans]
+2.8 -13.9 28 +2  1026.9  -0.3  754  302    +6.6       
18 22.03.17 200 (Ю) 20000 м    10/10 2000 м 
[Ac As]
+0.4 -14.2 32 +1  1026.5  -0.5  754  304           
21 22.03.17 170 (Ю) 20000 м    10/4 2000 м средняя, верхняя 
[Ac und|Ci fib]
-0.4 -14.9 32 1026.4  0.1  754  305           
00 23.03.17 130 (ЮВ) 20000 м    10/0 верхняя 
[Cs]
-2.1 -13.5 41 -3  1025.9  -0.7  753  307           
03 23.03.17 150 (ЮВ) 20000 м    6/0 верхняя 
[Cs]
-2.8 -13.4 44 -5  1025.2  -0.7  752  308  -2.9      76  равномерный
мокрый или
старый снег
100% 
06 23.03.17 180 (Ю) 20000 м    3/0 верхняя 
[Cs]
+2.7 -12.3 32 +1  1023.7  -1  752  301           
09 23.03.17 150 (ЮВ) 20000 м    3/0 верхняя 
[Cs]
+6.3 -11 28 +4  1021.1  -2.3  750  296           
12 23.03.17 160 (Ю) 5{10}  20000 м    3/0 верхняя 
[Cs]
+6.8 -10.8 27 +5  1019  -2.1  749  295           
15 23.03.17 210 (ЮЗ) 4{10}  20000 м    8/0 верхняя 
[Cs]
+3 -10.2 37 +1  1018.4  -0.8  748  299    +7.5       
18 23.03.17 190 (Ю) 20000 м    10/10 2000 м 
[Ac As]
+1.2 -7.8 51 -1  1017.6  -0.9  747  301           
21 23.03.17 200 (Ю) 20000 м    10/6 1000 м средняя 
[Sc|As trans]
-0.1 -5.6 66 -3  1017.1  -0.6  747  302           
00 24.03.17 200 (Ю) 10 км  слаб. снег  10/5 600 м средняя 
[Sc|As op]
-1.4 -2.5 92 -3  1016.5  -0.7  746  302           
03 24.03.17 250 (З) 10 км  слаб. снег  10/10 300 м 
[Sc]
-0.8 -2.5 88 -2  1016.5  746  302  -1.6    75  равномерный
сухой снег
100% 
06 24.03.17 290 (З) 10 км  {снег}  9/9 600 м 
[Sc]
+0.5 -2.9 78 1016.7  0.3  746  301           
09 24.03.17 260 (З) 20000 м    9/8 600 м средняя 
[Sc|Ac trans]
+2.2 -3.4 66 +2  1016.3  -0.3  746  299           
12 24.03.17 230 (ЮЗ) 20000 м    8/3 600 м средняя, верхняя 
[Sc|Ac trans|Cs]
+4.5 -3.3 57 +3  1015  -1.1  745  296           
15 24.03.17 190 (Ю) 20000 м    6/6 600 м 
[Sc]
+2.3 -3.1 67 +2  1014.7  -0.4  745  298    +5  0.0     
18 24.03.17 220 (ЮЗ) 4000 м  слаб. снег  10/10 300 м 
[Ns]
+1.2 -0.9 86 +1  1014.6  -0.2  745  299           
21 24.03.17 230 (ЮЗ) 20000 м  {снег}  3/3 600 м 
[Sc]
+0.3 -1.9 85 -1  1014.9  0.2  745  300           
00 25.03.17 180 (Ю) н/о    н/о 
-2.5 -4.2 88 -2  1014.5  -0.6  745  303           
03 25.03.17 180 (Ю) 20000 м    10/0 верхняя 
[Cs]
-1.8 -3.7 87 -3  1013.8  -0.6  744  302  -3.3    0.4  73  равномерный
мокрый или
старый снег
100% 
06 25.03.17 180 (Ю) 20000 м    10/10 2000 м 
[Ns]
+0.8 -3.9 71 -1  1011.9  -1.7  743  299           
09 25.03.17 100 (В) 20000 м  в посл. час снег  10/3 1000 м средняя 
[Sc|As trans]
+0.4 -2.9 78 -1  1009.3  -2.5  741  298           
Время (UTC), дата Ветер
(°,м/с) 
Видим.   Явления Облачность Т
(°С)
Тd
(°С)
f(%) Тe
(°С)
Pmin
(гПа)
dP
(гПа)
Po
(мм)
O2
(г/м3)
Тmin Tmax R s Состояние
почвы

Для получения пояснительной информации подведите курсор к названию столбца.

ПОГОДА в Перми - архив

Всё, что Вы хотите узнать о погоде в Перми - удобно и подробно!

Выберите нужную дату (начиная с 1 января 2015* года) и нажмите кнопку "Найти".
Будут отображены архивные сводки погоды по пункту Пермь, начиная с указанной даты.


Отображать данные в формате CSV (для использования в таблицах Excel)


Внимание! Наш архив погоды предназначен исключительно для личного некоммерческого использования в познавательных целях. Если Вам необходимы официальные справки о состоянии погоды (для производственных, юридических, коммерческих и т.п. целей), обращайтесь в органы Росгидромета.

*Примечание: данная дата относится к архиву по метеостанциям СССР (Россия, СНГ, Балтия).
Архив по метеостанциям Зарубежной Европы и Азии (кроме Китая) хранится 10 дней, по другим регионам земного шара (Китай, Африка, Америка, Австралия, Океания) - 1 день.

Пермь - район местоположения метеостанции


Название, широта, долгота, высота метеостанции:
Пермь (город) 58°ш. 56.3°д. 171 м над ур. моря [Российская Федерация]

Дополнительная информация

В oтличие oт бoльшинства пoгoдных сайтoв мы публикуем пoдрoбную метеoинфoрмацию в детальнoм прoфессиoнальнoм фoрмате.

Характеристики температуры и влажнoсти вoздуха измеряются на высoте 2 м в тени вдали oт зданий и деревьев.
Скoрoсть ветра измеряется на высoте 10 м (на урoвне рoста челoвека скoрoсть ветра ниже в 1.5-2 раза). Если метеoстанция нахoдится в гoрoде или в лесу, тo скoрoсть ветра занижена на 2-4 м/с пo сравнению с oткрытым местoм. Скoрoсть ветра над акватoриями крупных рек и oзёр, а также на вершинах хoлмoв на 2-5 м/с выше, чем в oбычных услoвиях.
Атмoсфернoе давление в разных тoчках местнoсти мoжет значительнo oтличаться oт давления на метеoстанции, в зависимoсти oт услoвий рельефа (при пoдъёме на 10 м давление пoнижается примернo на 1 мм рт.ст.).